Location: Blythe
(33.2930°N, 82.2020°W)
Time: 08:00:29
(UTC-05:00)

Hubble Space Telescope - Visible Passes

Search period start: 16 December 2017 00:00
Search period end: 26 December 2017 00:00
Orbit: 537 x 541 km, 28.5° (Epoch: 15 December)

Date Brightness Start Highest point End Pass type
(mag) Time Alt. Az. Time Alt. Az. Time Alt. Az.
16 Dec 2.4 18:23:10 10° WSW 18:26:49 30° SSW 18:30:28 10° SE visible
16 Dec 3.8 20:05:46 10° SW 20:06:33 12° SW 20:06:33 12° SW visible
17 Dec 2.7 18:13:01 10° WSW 18:16:31 26° SSW 18:20:01 10° SE visible
18 Dec 3.0 18:02:55 10° WSW 18:06:13 23° SSW 18:09:30 10° SE visible
19 Dec 3.3 17:52:55 10° WSW 17:55:54 19° SSW 17:58:52 10° SSE visible
